Weather Roundup
Issued by NWS

Home | Current Version | Previous Version | Graphics & Text | Print | Product List | Glossary Off
Versions: 1 2 3 4 5 6 7 8 9 10 11 12 13 14 15 16 17 18 19 20 21 22 23 24 25 26 27 28 29 30 31 32 33 34 35 36 37 38 39 40 41 42 43 44 45 46 47 48 49 50

000
NZUS93 KARX 262210
HRRWXR

CURRENT HOURLY OBSERVATIONS ACROSS
MUCH OF THE UPPER MISSISSIPPI VALLEY
NATIONAL WEATHER SERVICE LA CROSSE WI
400 PM CST MON JAN 26 2015


...SOUTHEAST MINNESOTA...


CITY           SKY/WX    TMP DP  RH WIND       PRES   REMARKS
ROCHESTER      PTSUNNY   37  32  82 NW14      29.77R WCI  28
ROCHESTER/MAYO CLOUDY    41  32  71 W13       29.76R
WINONA         CLOUDY    30  27  86 SE3       29.79R
AUSTIN         MOSUNNY   39  36  87 NW15      29.78R WCI  31
ALBERT LEA     PTSUNNY   43  37  81 NW5       29.79R
DODGE CENTER   PTSUNNY   39  36  87 NW13G20   29.77R WCI  32
PRESTON        PTSUNNY   37  32  82 NW12      29.77R WCI  29
OWATONNA       PTSUNNY   41  34  75 NW17      29.79R
FARIBAULT      CLOUDY    39  36  87 W10       29.80R WCI  32
$$

...ELSEWHERE IN MINNESOTA...


CITY           SKY/WX    TMP DP  RH WIND       PRES   REMARKS
MINNEAPOLIS    CLOUDY    42  32  67 W15G23    29.77R
INTNL FALLS    CLOUDY    28  23  81 N12       29.80R WCI  18
DULUTH         LGT SNOW  31  27  85 N6        29.72R FOG     WCI  25
RED WING       CLOUDY    43  32  65 CALM      29.76R
REDWOOD FALLS  CLOUDY    43  34  70 NW15G23   29.86R
MANKATO        MOSUNNY   43  36  75 NW24      29.81R
WORTHINGTON    SUNNY     43  34  70 NW18G24   29.88R
FAIRMONT       PTSUNNY   45  34  65 NW15G25   29.83R
$$

...SOUTHWEST WISCONSIN...


CITY           SKY/WX    TMP DP  RH WIND       PRES   REMARKS
LA CROSSE      CLOUDY    30  26  85 S7        29.78R WCI  23
PRAIRIE DU CHI MIX PCPN  29  25  86 E5        29.80R WCI  24
BOSCOBEL       CLOUDY    27  23  85 CALM      29.81R FOG
LONE ROCK      CLOUDY    25  23  92 S3        29.82R FOG
PLATTEVILLE    CLOUDY    26  24  96 SE7       29.79S WCI  18
FORT MC COY    MIX PCPN  26  26  96 CALM      29.79R
CAMP DOUGLAS   FRZ DRZL  25  25 100 SE6       29.79R WCI  18
VIROQUA        CLOUDY    26  26 100 S5        29.76R WCI  20
WIS DELLS      CLOUDY    23  21  93 S6        29.80R FOG     WCI  15
$$

...ELSEWHERE IN WISCONSIN...


CITY           SKY/WX    TMP DP  RH WIND       PRES   REMARKS
MILWAUKEE      FLURRIES  26  20  77 SE10      29.86S WCI  16
MADISON        LGT SNOW  23  20  88 S9G20     29.82R VSB 1   WCI  13
GREEN BAY      LGT SNOW  26  21  81 S7        29.85S WCI  18
EAU CLAIRE     CLOUDY    27  24  89 CALM      29.77R
BLACK RVR FLS  CLOUDY    27  27 100 CALM      29.78R FOG
MEDFORD        CLOUDY    20  19  93 SE3       29.74S FOG
WAUSAU         CLOUDY    21  17  84 SE7       29.76R WCI  12
WIS RAPIDS     CLOUDY    22  19  89 SE7       29.80R WCI  13
MARSHFIELD     CLOUDY    22  19  89 S9        29.76R WCI  12
RICE LAKE      LGT SNOW  26  24  93 CALM      29.77R
$$

...NORTHEAST IOWA...


CITY           SKY/WX    TMP DP  RH WIND       PRES   REMARKS
DECORAH        CLOUDY    37  34  87 NW7       29.75R WCI  32
MASON CITY     MOSUNNY   44  36  73 NW17      29.81R
CHARLES CITY   CLOUDY    41  39  93 NW12G18   29.79R
OELWEIN        CLOUDY    43  37  81 NW14      29.78R
$$

...ELSEWHERE IN IOWA...


CITY           SKY/WX    TMP DP  RH WIND       PRES   REMARKS
DES MOINES     MOSUNNY   53  36  52 NW18G24   29.85R
IOWA CITY      CLOUDY    35  32  88 SE5       29.83R WCI  31
FORT DODGE     SUNNY     46  37  71 NW15G22   29.86R
$$

...NORTHERN ILLINOIS...


CITY           SKY/WX    TMP DP  RH WIND       PRES   REMARKS
CHICAGO-OHARE  FLURRIES  26  20  77 S8        29.86S WCI  18
CHICAGO-MIDWAY FLURRIES  28  21  75 S7        29.87S WCI  21
MOLINE         CLOUDY    31  27  85 SW6       29.82R WCI  25
ROCKFORD       FRZ DRZL  24  21  88 SE8       29.86R FOG     WCI  15
PEORIA         CLOUDY    29  26  89 S10       29.86R FOG     WCI  20
$$

NOTE: "FAIR" INDICATES FEW OR NO CLOUDS BELOW 12,000 FEET WITH NO
SIGNIFICANT WEATHER AND/OR OBSTRUCTIONS TO VISIBILITY. WIND
SPEEDS ARE IN MILES-PER-HOUR.



USA.gov is the U.S. government's official web portal to all federal, state and local government web resources and services.